Regional Weather Roundup
Issued by NWS

Home | Current Version | Previous Version | Graphics & Text | Print | Product List | Glossary On
Versions: 1 2 3 4 5 6 7 8 9 10 11 12 13 14 15 16 17 18 19 20 21 22 23 24 25 26 27 28 29 30 31 32 33 34 35 36 37 38 39 40 41 42 43 44 45 46 47 48 49 50
000
ASUS44 KMEG 251610
RWRTN
TENNESSEE HOURLY STATE WEATHER ROUNDUP
NATIONAL WEATHER SERVICE MEMPHIS TN
1100 AM CDT TUE JUL 25 2017

TNZ002-004-019-021-049-052-054-088>092-251700-
WEST TENNESSEE

CITY           SKY/WX    TMP DP  RH WIND       PRES   REMARKS
MEMPHIS INTL   MOSUNNY   90  76  63 SW5       30.09R HX 101
NWS MEMPHIS      N/A     89 N/A N/A MISG        N/A
JACKSON        MOSUNNY   89  77  67 S3        30.09S HX 101
SOMERVILLE       N/A     88  75  66 CALM      30.09R HX  97
COVINGTON      MOSUNNY   88  77  70 S5        30.08S HX 100
UNION CITY     PTSUNNY   88  77  70 VRB5      30.07S HX 100
BOLIVAR        MOSUNNY   90  73  58 NE6       30.09R HX  98
PARIS          SUNNY     86  75  70 CALM      30.09S HX  95
HUNTINGDON     PTSUNNY   88  77  70 CALM      30.08S HX 100
LEXINGTON      SUNNY     86  77  74 CALM      30.10R HX  97
SELMER         PTSUNNY   88  75  66 VRB5      30.10S HX  97
SAVANNAH       SUNNY     88  75  66 VRB3      30.09S HX  97
$$

TNZ008-025-027-028-033-062-065-066-251700-
NORTH MIDDLE TENNESSEE

CITY           SKY/WX    TMP DP  RH WIND       PRES   REMARKS
NASHVILLE      MOSUNNY   90  69  50 N6        30.11S HX  94
PORTLAND       PTSUNNY   86  77  74 N5        30.11S HX  97
CLARKSVILLE    SUNNY     89  71  55 CALM      30.10S HX  95
SMYRNA         MOSUNNY   90  75  61 NE9       30.11S HX 100
COOKEVILLE     MOSUNNY   86  73  66 CALM      30.12F HX  93
GALLATIN       MOSUNNY   90  73  58 VRB5      30.13R HX  98
CROSSVILLE     PTSUNNY   83  67  58 CALM      30.18F
$$

TNZ061-075-076-078-094-096-097-251700-
SOUTH MIDDLE TENNESSEE

CITY           SKY/WX    TMP DP  RH WIND       PRES   REMARKS
FAYETTEVILLE   SUNNY     84  75  74 CALM      30.12S HX  92
TULLAHOMA      PTSUNNY   86  72  62 CALM      30.14S HX  92
WINCHESTER     SUNNY     86  73  66 CALM      30.13S HX  93
MCMINNVILLE    SUNNY     86  75  70 CALM      30.13S HX  95
COLUMBIA       SUNNY     86  73  66 CALM      30.09F HX  93
SHELBYVILLE    SUNNY     86  75  70 CALM      30.11F HX  95
$$

TNZ017-018-042-046-047-251700-
NORTHEAST TENNESSEE

CITY           SKY/WX    TMP DP  RH WIND       PRES   REMARKS
TRI CITIES     PTSUNNY   83  69  62 VRB3      30.16S
ELIZABETHTON   PTSUNNY   82  70  65 NW5       30.16S
$$

TNZ012-013-036-069-073-074-251700-
CENTRAL EAST TENNESSEE

CITY           SKY/WX    TMP DP  RH WIND       PRES   REMARKS
KNOXVILLE      PTSUNNY   85  68  56 VRB3      30.12S
OAK RIDGE      SUNNY     86  69  56 CALM      30.13F HX  90
DOWNTOWN KNOXV SUNNY     88  73  62 SE3       30.11F HX  96
GATLINBURG     MOSUNNY   88  68  51 NE5       30.12S HX  91
MORRISTOWN     MOSUNNY   84  72  65 N7        30.13F
JACKSBORO      PTSUNNY   84  72  65 CALM      30.16F
$$

TNZ083-085-099-251700-
SOUTHEAST TENNESSEE

CITY           SKY/WX    TMP DP  RH WIND       PRES   REMARKS
CHATTANOOGA    MOSUNNY   87  71  58 VRB3      30.11F HX  93
DAYTON         SUNNY     86  75  70 CALM      30.11S HX  95
$$

SKY/WX REPORTED AS FAIR MEANS FEW OR NO CLOUDS BELOW
12 THOUSAND FEET.




USA.gov is the U.S. government's official web portal to all federal, state and local government web resources and services.